Time,TemperatureF,DewpointF,PressureIn,WindDirection,WindDirectionDegrees,WindSpeedMPH,WindSpeedGustMPH,Humidity,HourlyPrecipIn,Conditions,Clouds,dailyrainin,SoftwareType,DateUTC
2013-01-03 17:24:00,75.2,60.4,30.12,SE,143,0.0,0.0,60,0.00,,---,0.00,VWS V14.01,2013-01-03 22:24:00,
2013-01-03 17:29:00,75.2,60.4,30.12,SE,143,0.0,0.0,60,0.00,,---,0.00,VWS V14.01,2013-01-03 22:29:00,
2013-01-03 17:34:00,76.1,63.0,30.12,SE,143,0.0,0.0,64,0.00,,---,0.00,VWS V14.01,2013-01-03 22:34:00,
2013-01-03 17:39:00,77.9,64.3,30.12,SE,143,0.0,0.0,63,0.00,,---,0.00,VWS V14.01,2013-01-03 22:39:00,
2013-01-03 17:40:00,77.9,64.3,30.12,SE,143,0.0,0.0,63,0.00,,---,0.00,VWS V14.01,2013-01-03 22:40:00,
2013-01-03 17:44:00,77.5,64.4,30.12,SE,143,0.0,0.0,64,0.00,,---,0.00,VWS V14.01,2013-01-03 22:44:00,
2013-01-03 17:45:00,77.5,64.4,30.12,SE,143,0.0,0.0,64,0.00,,---,0.00,VWS V14.01,2013-01-03 22:45:00,
2013-01-03 17:50:00,76.1,63.0,30.12,SE,143,0.0,0.0,64,0.00,,---,0.00,VWS V14.01,2013-01-03 22:50:00,
2013-01-03 17:55:00,75.6,63.0,30.12,SE,143,0.0,0.0,65,0.00,,---,0.00,VWS V14.01,2013-01-03 22:55:00,
2013-01-03 18:00:00,75.2,63.1,30.12,SE,143,0.0,0.0,66,0.00,,---,0.00,VWS V14.01,2013-01-03 23:00:00,
2013-01-03 18:05:00,75.2,63.5,30.12,SE,143,0.0,0.0,67,0.00,,---,0.00,VWS V14.01,2013-01-03 23:05:00,
2013-01-03 18:10:00,75.0,63.8,30.12,SE,143,0.0,0.0,68,0.00,,---,0.00,VWS V14.01,2013-01-03 23:10:00,
2013-01-03 18:11:00,75.0,63.8,30.12,SE,143,0.0,0.0,68,0.00,,---,0.00,VWS V14.01,2013-01-03 23:11:00,
2013-01-03 18:15:00,74.8,63.6,30.12,SE,143,0.0,0.0,68,0.00,,---,0.00,VWS V14.01,2013-01-03 23:15:00,
2013-01-03 18:16:00,74.8,63.6,30.12,SE,143,0.0,0.0,68,0.00,,---,0.00,VWS V14.01,2013-01-03 23:16:00,
2013-01-03 18:20:00,74.8,64.0,30.12,SE,143,0.0,0.0,69,0.00,,---,0.00,VWS V14.01,2013-01-03 23:20:00,
2013-01-03 18:21:00,74.8,64.0,30.12,SE,143,0.0,0.0,69,0.00,,---,0.00,VWS V14.01,2013-01-03 23:21:00,
2013-01-03 18:25:00,74.7,63.8,30.12,SE,143,0.0,0.0,69,0.00,,---,0.00,VWS V14.01,2013-01-03 23:25:00,
2013-01-03 18:26:00,74.7,63.8,30.12,SE,143,0.0,0.0,69,0.00,,---,0.00,VWS V14.01,2013-01-03 23:26:00,
2013-01-03 18:30:00,74.7,63.8,30.12,SE,143,0.0,0.0,69,0.00,,---,0.00,VWS V14.01,2013-01-03 23:30:00,
2013-01-03 18:31:00,74.7,63.8,30.12,SE,143,0.0,0.0,69,0.00,,---,0.00,VWS V14.01,2013-01-03 23:31:00,
2013-01-03 18:35:00,74.5,64.1,30.12,SE,143,0.0,0.0,70,0.00,,---,0.00,VWS V14.01,2013-01-03 23:35:00,
2013-01-03 18:36:00,74.5,64.1,30.12,SE,143,0.0,0.0,70,0.00,,---,0.00,VWS V14.01,2013-01-03 23:36:00,
2013-01-03 18:40:00,74.5,64.1,30.12,SE,143,0.0,0.0,70,0.00,,---,0.00,VWS V14.01,2013-01-03 23:40:00,
2013-01-03 18:41:00,74.5,64.1,30.12,SE,143,0.0,0.0,70,0.00,,---,0.00,VWS V14.01,2013-01-03 23:41:00,
2013-01-03 18:45:00,74.5,64.1,30.12,SE,143,0.0,0.0,70,0.00,,---,0.00,VWS V14.01,2013-01-03 23:45:00,
2013-01-03 18:46:00,74.5,64.1,30.12,SE,143,0.0,0.0,70,0.00,,---,0.00,VWS V14.01,2013-01-03 23:46:00,
2013-01-03 18:50:00,74.1,64.1,30.12,SE,143,0.0,0.0,71,0.00,,---,0.00,VWS V14.01,2013-01-03 23:50:00,
2013-01-03 18:51:00,74.1,64.1,30.12,SE,143,0.0,0.0,71,0.00,,---,0.00,VWS V14.01,2013-01-03 23:51:00,
2013-01-03 18:55:00,74.1,64.1,30.12,SSE,154,0.0,0.0,71,0.00,,---,0.00,VWS V14.01,2013-01-03 23:55:00,
2013-01-03 18:56:00,74.1,64.1,30.12,SSE,154,0.0,0.0,71,0.00,,---,0.00,VWS V14.01,2013-01-03 23:56:00,
2013-01-03 18:57:00,74.1,64.1,30.12,SSE,154,0.0,0.0,71,0.00,,---,0.00,VWS V14.01,2013-01-03 23:57:00,
2013-01-03 19:00:00,74.1,64.1,30.12,SSE,154,0.0,0.0,71,0.00,,---,0.00,VWS V14.01,2013-01-04 00:00:00,
2013-01-03 19:01:00,74.1,64.1,30.12,SSE,154,0.0,0.0,71,0.00,,---,0.00,VWS V14.01,2013-01-04 00:01:00,
2013-01-03 19:02:00,74.1,64.1,30.12,SSE,154,0.0,0.0,71,0.00,,---,0.00,VWS V14.01,2013-01-04 00:02:00,
2013-01-03 19:06:00,73.9,64.8,30.12,SSE,154,0.0,0.0,73,0.00,,---,0.00,VWS V14.01,2013-01-04 00:06:00,
2013-01-03 19:07:00,73.9,64.8,30.12,SSE,153,0.0,0.0,73,0.00,,---,0.00,VWS V14.01,2013-01-04 00:07:00,
2013-01-03 19:11:00,73.9,64.8,30.12,SSE,153,0.0,0.0,73,0.00,,---,0.00,VWS V14.01,2013-01-04 00:11:00,
2013-01-03 19:12:00,73.9,64.8,30.12,SSE,153,0.0,0.0,73,0.00,,---,0.00,VWS V14.01,2013-01-04 00:12:00,
2013-01-03 19:16:00,73.9,64.8,30.12,SSE,153,0.0,0.0,73,0.00,,---,0.00,VWS V14.01,2013-01-04 00:16:00,
2013-01-03 19:17:00,73.8,65.3,30.12,SSE,153,0.0,0.0,75,0.00,,---,0.00,VWS V14.01,2013-01-04 00:17:00,
2013-01-03 19:21:00,73.8,65.3,30.12,SSW,204,0.0,0.0,75,0.00,,---,0.00,VWS V14.01,2013-01-04 00:21:00,
2013-01-03 19:22:00,73.8,65.3,30.12,SSW,204,0.0,0.0,75,0.00,,---,0.00,VWS V14.01,2013-01-04 00:22:00,
2013-01-03 19:26:00,73.8,65.3,30.15,SSW,204,0.0,0.0,75,0.00,,---,0.00,VWS V14.01,2013-01-04 00:26:00,
2013-01-03 19:27:00,73.8,65.3,30.15,SSW,204,0.0,0.0,75,0.00,,---,0.00,VWS V14.01,2013-01-04 00:27:00,
2013-01-03 19:31:00,73.8,65.3,30.15,SSW,204,0.0,0.0,75,0.00,,---,0.00,VWS V14.01,2013-01-04 00:31:00,
2013-01-03 19:32:00,73.8,65.3,30.15,SSW,204,0.0,0.0,75,0.00,,---,0.00,VWS V14.01,2013-01-04 00:32:00,
2013-01-03 19:36:00,73.4,65.4,30.15,SSW,204,0.0,0.0,76,0.00,,---,0.00,VWS V14.01,2013-01-04 00:36:00,
2013-01-03 19:37:00,73.4,65.4,30.15,SSW,204,0.0,0.0,76,0.00,,---,0.00,VWS V14.01,2013-01-04 00:37:00,
2013-01-03 19:41:00,73.4,65.4,30.15,SSW,204,0.0,0.0,76,0.00,,---,0.00,VWS V14.01,2013-01-04 00:41:00,
2013-01-03 19:42:00,73.4,65.4,30.15,SSW,204,0.0,0.0,76,0.00,,---,0.00,VWS V14.01,2013-01-04 00:42:00,
2013-01-03 19:46:00,73.4,65.8,30.15,SSW,204,0.0,0.0,77,0.00,,---,0.00,VWS V14.01,2013-01-04 00:46:00,
2013-01-03 19:47:00,73.4,65.8,30.15,SSW,204,0.0,0.0,77,0.00,,---,0.00,VWS V14.01,2013-01-04 00:47:00,
2013-01-03 19:51:00,73.4,65.8,30.15,SSW,204,0.0,0.0,77,0.00,,---,0.00,VWS V14.01,2013-01-04 00:51:00,
2013-01-03 19:52:00,73.4,65.8,30.15,SSW,204,0.0,0.0,77,0.00,,---,0.00,VWS V14.01,2013-01-04 00:52:00,
2013-01-03 19:56:00,73.4,65.8,30.15,SSW,204,0.0,0.0,77,0.00,,---,0.00,VWS V14.01,2013-01-04 00:56:00,
2013-01-03 19:57:00,73.4,65.8,30.15,SSW,204,0.0,0.0,77,0.00,,---,0.00,VWS V14.01,2013-01-04 00:57:00,
2013-01-03 19:58:00,73.4,65.8,30.15,SSW,204,0.0,0.0,77,0.00,,---,0.00,VWS V14.01,2013-01-04 00:58:00,
2013-01-03 20:01:00,73.0,65.8,30.15,SSW,204,0.0,0.0,78,0.00,,---,0.00,VWS V14.01,2013-01-04 01:01:00,
2013-01-03 20:02:00,73.0,65.8,30.15,SSW,204,0.0,0.0,78,0.00,,---,0.00,VWS V14.01,2013-01-04 01:02:00,
2013-01-03 20:03:00,73.0,65.8,30.15,SSW,204,0.0,0.0,78,0.00,,---,0.00,VWS V14.01,2013-01-04 01:03:00,
2013-01-03 20:06:00,73.0,65.8,30.15,SSW,204,0.0,0.0,78,0.00,,---,0.00,VWS V14.01,2013-01-04 01:06:00,
2013-01-03 20:07:00,73.0,65.8,30.15,SSW,204,0.0,0.0,78,0.00,,---,0.00,VWS V14.01,2013-01-04 01:07:00,
2013-01-03 20:08:00,73.0,65.8,30.15,SSW,204,0.0,0.0,78,0.00,,---,0.00,VWS V14.01,2013-01-04 01:08:00,
2013-01-03 20:11:00,73.0,65.8,30.15,SSW,204,0.0,0.0,78,0.00,,---,0.00,VWS V14.01,2013-01-04 01:11:00,
2013-01-03 20:12:00,73.0,65.8,30.15,SSW,204,0.0,0.0,78,0.00,,---,0.00,VWS V14.01,2013-01-04 01:12:00,
2013-01-03 20:13:00,73.0,65.8,30.15,SSW,204,0.0,0.0,78,0.00,,---,0.00,VWS V14.01,2013-01-04 01:13:00,
2013-01-03 20:16:00,73.0,65.8,30.15,SSW,204,0.0,0.0,78,0.00,,---,0.00,VWS V14.01,2013-01-04 01:16:00,
2013-01-03 20:17:00,73.0,65.8,30.15,SSW,204,0.0,0.0,78,0.00,,---,0.00,VWS V14.01,2013-01-04 01:17:00,
2013-01-03 20:18:00,73.0,65.8,30.15,SSW,204,0.0,0.0,78,0.00,,---,0.00,VWS V14.01,2013-01-04 01:18:00,
2013-01-03 20:21:00,73.0,65.8,30.15,SSW,204,0.0,0.0,78,0.00,,---,0.00,VWS V14.01,2013-01-04 01:21:00,
2013-01-03 20:22:00,73.0,65.8,30.15,SSW,204,0.0,0.0,78,0.00,,---,0.00,VWS V14.01,2013-01-04 01:22:00,
2013-01-03 20:23:00,73.0,65.8,30.15,SSW,204,0.0,0.0,78,0.00,,---,0.00,VWS V14.01,2013-01-04 01:23:00,
2013-01-03 20:27:00,73.0,66.2,30.15,SSW,204,0.0,0.0,79,0.00,,---,0.00,VWS V14.01,2013-01-04 01:27:00,
2013-01-03 20:28:00,73.0,66.2,30.15,SSW,204,0.0,0.0,79,0.00,,---,0.00,VWS V14.01,2013-01-04 01:28:00,
2013-01-03 20:32:00,73.0,66.2,30.15,SSW,204,0.0,0.0,79,0.00,,---,0.00,VWS V14.01,2013-01-04 01:32:00,
2013-01-03 20:33:00,73.0,66.2,30.15,SSW,204,0.0,0.0,79,0.00,,---,0.00,VWS V14.01,2013-01-04 01:33:00,
2013-01-03 20:34:00,73.0,66.2,30.15,SSW,204,0.0,0.0,79,0.00,,---,0.00,VWS V14.01,2013-01-04 01:34:00,
2013-01-03 20:37:00,73.0,66.5,30.15,SSW,204,0.0,0.0,80,0.00,,---,0.00,VWS V14.01,2013-01-04 01:37:00,
2013-01-03 20:38:00,73.0,66.5,30.15,SSW,204,0.0,0.0,80,0.00,,---,0.00,VWS V14.01,2013-01-04 01:38:00,
2013-01-03 20:39:00,73.0,66.5,30.15,SSW,204,0.0,0.0,80,0.00,,---,0.00,VWS V14.01,2013-01-04 01:39:00,
2013-01-03 20:42:00,73.0,66.5,30.15,SSW,204,0.0,0.0,80,0.00,,---,0.00,VWS V14.01,2013-01-04 01:42:00,
2013-01-03 20:43:00,73.0,66.5,30.15,SSW,204,0.0,0.0,80,0.00,,---,0.00,VWS V14.01,2013-01-04 01:43:00,
2013-01-03 20:44:00,73.0,66.5,30.15,SSW,204,0.0,0.0,80,0.00,,---,0.00,VWS V14.01,2013-01-04 01:44:00,
2013-01-03 20:47:00,73.0,66.5,30.15,SSW,204,0.0,0.0,80,0.00,,---,0.00,VWS V14.01,2013-01-04 01:47:00,
2013-01-03 20:48:00,73.0,66.5,30.15,SSW,204,0.0,0.0,80,0.00,,---,0.00,VWS V14.01,2013-01-04 01:48:00,
2013-01-03 20:49:00,73.0,66.5,30.15,SSW,204,0.0,0.0,80,0.00,,---,0.00,VWS V14.01,2013-01-04 01:49:00,
2013-01-03 20:52:00,72.7,66.2,30.15,SSW,204,0.0,0.0,80,0.00,,---,0.00,VWS V14.01,2013-01-04 01:52:00,
2013-01-03 20:53:00,72.7,66.2,30.15,SSW,204,0.0,0.0,80,0.00,,---,0.00,VWS V14.01,2013-01-04 01:53:00,
2013-01-03 20:54:00,72.7,66.2,30.15,SSW,204,0.0,0.0,80,0.00,,---,0.00,VWS V14.01,2013-01-04 01:54:00,
2013-01-03 20:58:00,72.7,66.2,30.15,SSW,204,0.0,0.0,80,0.00,,---,0.00,VWS V14.01,2013-01-04 01:58:00,
2013-01-03 20:59:00,72.7,66.2,30.15,SSW,204,0.0,0.0,80,0.00,,---,0.00,VWS V14.01,2013-01-04 01:59:00,
2013-01-03 21:03:00,72.7,66.2,30.15,SSW,204,0.0,0.0,80,0.00,,---,0.00,VWS V14.01,2013-01-04 02:03:00,
2013-01-03 21:04:00,72.5,66.0,30.15,SSW,204,0.0,0.0,80,0.00,,---,0.00,VWS V14.01,2013-01-04 02:04:00,
2013-01-03 21:08:00,72.7,66.2,30.15,SSW,204,0.0,0.0,80,0.00,,---,0.00,VWS V14.01,2013-01-04 02:08:00,
2013-01-03 21:09:00,72.7,66.2,30.15,SSW,204,0.0,0.0,80,0.00,,---,0.00,VWS V14.01,2013-01-04 02:09:00,
2013-01-03 21:13:00,72.7,66.2,30.15,SSW,204,0.0,0.0,80,0.00,,---,0.00,VWS V14.01,2013-01-04 02:13:00,
2013-01-03 21:14:00,72.7,66.2,30.15,SSW,204,0.0,0.0,80,0.00,,---,0.00,VWS V14.01,2013-01-04 02:14:00,
2013-01-03 21:18:00,72.7,66.2,30.15,SSW,204,0.0,0.0,80,0.00,,---,0.00,VWS V14.01,2013-01-04 02:18:00,
2013-01-03 21:19:00,72.7,66.2,30.18,SSW,204,0.0,0.0,80,0.00,,---,0.00,VWS V14.01,2013-01-04 02:19:00,
2013-01-03 21:23:00,72.7,66.2,30.18,SSW,204,0.0,0.0,80,0.00,,---,0.00,VWS V14.01,2013-01-04 02:23:00,
2013-01-03 21:25:00,72.7,66.2,30.18,SSW,204,0.0,0.0,80,0.00,,---,0.00,VWS V14.01,2013-01-04 02:25:00,
2013-01-03 21:28:00,72.7,66.2,30.18,SSW,204,0.0,0.0,80,0.00,,---,0.00,VWS V14.01,2013-01-04 02:28:00,
2013-01-03 21:29:00,72.7,66.2,30.18,SSW,204,0.0,0.0,80,0.00,,---,0.00,VWS V14.01,2013-01-04 02:29:00,
2013-01-03 21:30:00,72.1,66.0,30.18,SSW,204,0.0,0.0,81,0.00,,---,0.00,VWS V14.01,2013-01-04 02:30:00,
2013-01-03 21:33:00,72.1,66.0,30.18,SSW,204,0.0,0.0,81,0.00,,---,0.00,VWS V14.01,2013-01-04 02:33:00,
2013-01-03 21:34:00,72.1,66.0,30.18,SSW,204,0.0,0.0,81,0.00,,---,0.00,VWS V14.01,2013-01-04 02:34:00,
2013-01-03 21:35:00,72.1,66.0,30.18,SSW,204,0.0,0.0,81,0.00,,---,0.00,VWS V14.01,2013-01-04 02:35:00,
2013-01-03 21:38:00,72.1,66.0,30.18,SSW,204,0.0,0.0,81,0.00,,---,0.00,VWS V14.01,2013-01-04 02:38:00,
2013-01-03 21:39:00,72.1,66.0,30.18,SSW,204,0.0,0.0,81,0.00,,---,0.00,VWS V14.01,2013-01-04 02:39:00,
2013-01-03 21:40:00,72.0,65.8,30.18,SSW,204,0.0,0.0,81,0.00,,---,0.00,VWS V14.01,2013-01-04 02:40:00,
2013-01-03 21:43:00,72.0,65.8,30.18,SSW,204,0.0,0.0,81,0.00,,---,0.00,VWS V14.01,2013-01-04 02:43:00,
2013-01-03 21:44:00,72.0,65.8,30.18,SSW,204,0.0,0.0,81,0.00,,---,0.00,VWS V14.01,2013-01-04 02:44:00,
2013-01-03 21:45:00,72.0,65.8,30.18,SSW,204,0.0,0.0,81,0.00,,---,0.00,VWS V14.01,2013-01-04 02:45:00,
2013-01-03 21:48:00,72.0,65.8,30.18,SSW,204,0.0,0.0,81,0.00,,---,0.00,VWS V14.01,2013-01-04 02:48:00,
2013-01-03 21:49:00,72.0,65.8,30.18,SSW,204,0.0,0.0,81,0.00,,---,0.00,VWS V14.01,2013-01-04 02:49:00,
2013-01-03 21:50:00,72.0,65.8,30.18,SSW,204,0.0,0.0,81,0.00,,---,0.00,VWS V14.01,2013-01-04 02:50:00,
2013-01-03 21:53:00,72.0,65.8,30.18,SSW,204,0.0,0.0,81,0.00,,---,0.00,VWS V14.01,2013-01-04 02:53:00,
2013-01-03 21:54:00,72.0,65.8,30.18,SSW,204,0.0,0.0,81,0.00,,---,0.00,VWS V14.01,2013-01-04 02:54:00,
2013-01-03 21:55:00,72.0,65.8,30.18,SSW,204,0.0,0.0,81,0.00,,---,0.00,VWS V14.01,2013-01-04 02:55:00,
2013-01-03 21:58:00,71.8,65.6,30.18,SSW,204,0.0,0.0,81,0.00,,---,0.00,VWS V14.01,2013-01-04 02:58:00,
2013-01-03 21:59:00,71.8,65.6,30.18,SSW,204,0.0,0.0,81,0.00,,---,0.00,VWS V14.01,2013-01-04 02:59:00,
2013-01-03 22:00:00,71.8,65.6,30.18,SSW,204,0.0,0.0,81,0.00,,---,0.00,VWS V14.01,2013-01-04 03:00:00,
2013-01-03 22:03:00,71.8,65.6,30.18,SSW,204,0.0,0.0,81,0.00,,---,0.00,VWS V14.01,2013-01-04 03:03:00,
2013-01-03 22:04:00,71.6,65.8,30.18,SSW,204,0.0,0.0,82,0.00,,---,0.00,VWS V14.01,2013-01-04 03:04:00,
2013-01-03 22:05:00,71.6,65.8,30.18,SSW,204,0.0,0.0,82,0.00,,---,0.00,VWS V14.01,2013-01-04 03:05:00,
2013-01-03 22:08:00,71.6,65.8,30.18,SSW,204,0.0,0.0,82,0.00,,---,0.00,VWS V14.01,2013-01-04 03:08:00,
2013-01-03 22:09:00,71.6,65.8,30.18,SSW,204,0.0,0.0,82,0.00,,---,0.00,VWS V14.01,2013-01-04 03:09:00,
2013-01-03 22:11:00,71.6,65.8,30.18,SSW,204,0.0,0.0,82,0.00,,---,0.00,VWS V14.01,2013-01-04 03:11:00,
2013-01-03 22:14:00,71.6,65.8,30.18,SSW,204,0.0,0.0,82,0.00,,---,0.00,VWS V14.01,2013-01-04 03:14:00,
2013-01-03 22:15:00,71.6,65.8,30.18,SSW,204,0.0,0.0,82,0.00,,---,0.00,VWS V14.01,2013-01-04 03:15:00,
2013-01-03 22:16:00,71.6,65.8,30.18,SSW,204,0.0,0.0,82,0.00,,---,0.00,VWS V14.01,2013-01-04 03:16:00,
2013-01-03 22:19:00,71.6,65.8,30.18,SSW,204,0.0,0.0,82,0.00,,---,0.00,VWS V14.01,2013-01-04 03:19:00,
2013-01-03 22:20:00,71.6,65.8,30.18,SSW,204,0.0,0.0,82,0.00,,---,0.00,VWS V14.01,2013-01-04 03:20:00,
2013-01-03 22:21:00,71.6,65.8,30.18,SSW,204,0.0,0.0,82,0.00,,---,0.00,VWS V14.01,2013-01-04 03:21:00,
2013-01-03 22:24:00,71.6,66.2,30.18,SSW,204,0.0,0.0,83,0.00,,---,0.00,VWS V14.01,2013-01-04 03:24:00,
2013-01-03 22:25:00,71.6,66.2,30.18,SSW,204,0.0,0.0,83,0.00,,---,0.00,VWS V14.01,2013-01-04 03:25:00,
2013-01-03 22:26:00,71.6,66.2,30.18,SSW,204,0.0,0.0,83,0.00,,---,0.00,VWS V14.01,2013-01-04 03:26:00,
2013-01-03 22:29:00,71.6,66.2,30.18,SSW,204,0.0,0.0,83,0.00,,---,0.00,VWS V14.01,2013-01-04 03:29:00,
2013-01-03 22:30:00,71.6,66.2,30.18,SSW,204,0.0,0.0,83,0.00,,---,0.00,VWS V14.01,2013-01-04 03:30:00,
2013-01-03 22:31:00,71.6,66.2,30.18,SSW,204,0.0,0.0,83,0.00,,---,0.00,VWS V14.01,2013-01-04 03:31:00,
2013-01-03 22:34:00,71.6,66.2,30.18,SSW,204,0.0,0.0,83,0.00,,---,0.00,VWS V14.01,2013-01-04 03:34:00,
2013-01-03 22:35:00,71.6,66.2,30.18,SSW,204,0.0,0.0,83,0.00,,---,0.00,VWS V14.01,2013-01-04 03:35:00,
2013-01-03 22:36:00,71.6,66.2,30.18,SSW,204,0.0,0.0,83,0.00,,---,0.00,VWS V14.01,2013-01-04 03:36:00,
2013-01-03 22:39:00,71.6,66.2,30.18,SSW,204,0.0,0.0,83,0.00,,---,0.00,VWS V14.01,2013-01-04 03:39:00,
2013-01-03 22:40:00,71.6,66.2,30.18,SSW,204,0.0,0.0,83,0.00,,---,0.00,VWS V14.01,2013-01-04 03:40:00,
2013-01-03 22:41:00,71.6,66.2,30.18,SSW,204,0.0,0.0,83,0.00,,---,0.00,VWS V14.01,2013-01-04 03:41:00,
2013-01-03 22:44:00,71.6,66.2,30.18,SSW,204,0.0,0.0,83,0.00,,---,0.00,VWS V14.01,2013-01-04 03:44:00,
2013-01-03 22:45:00,71.6,66.2,30.18,SSW,204,0.0,0.0,83,0.00,,---,0.00,VWS V14.01,2013-01-04 03:45:00,
2013-01-03 22:46:00,71.6,66.2,30.18,SSW,204,0.0,0.0,83,0.00,,---,0.00,VWS V14.01,2013-01-04 03:46:00,
2013-01-03 22:49:00,71.6,66.2,30.18,SSW,204,0.0,0.0,83,0.00,,---,0.00,VWS V14.01,2013-01-04 03:49:00,
2013-01-03 22:50:00,71.6,66.2,30.18,SSW,204,0.0,0.0,83,0.00,,---,0.00,VWS V14.01,2013-01-04 03:50:00,
2013-01-03 22:51:00,71.6,66.5,30.18,SSW,204,0.0,0.0,84,0.00,,---,0.00,VWS V14.01,2013-01-04 03:51:00,
2013-01-03 22:54:00,71.6,66.5,30.18,SSW,204,0.0,0.0,84,0.00,,---,0.00,VWS V14.01,2013-01-04 03:54:00,
2013-01-03 22:55:00,71.6,66.5,30.18,SSW,204,0.0,0.0,84,0.00,,---,0.00,VWS V14.01,2013-01-04 03:55:00,
2013-01-03 22:56:00,71.6,66.5,30.18,SSW,204,0.0,0.0,84,0.00,,---,0.00,VWS V14.01,2013-01-04 03:56:00,
2013-01-03 22:59:00,71.6,66.5,30.18,SSW,204,0.0,0.0,84,0.00,,---,0.00,VWS V14.01,2013-01-04 03:59:00,
2013-01-03 23:00:00,71.6,66.5,30.18,SSW,204,0.0,0.0,84,0.00,,---,0.00,VWS V14.01,2013-01-04 04:00:00,
2013-01-03 23:01:00,71.6,66.5,30.18,SSW,204,0.0,0.0,84,0.00,,---,0.00,VWS V14.01,2013-01-04 04:01:00,
2013-01-03 23:04:00,71.6,66.5,30.18,SSW,204,0.0,0.0,84,0.00,,---,0.00,VWS V14.01,2013-01-04 04:04:00,
2013-01-03 23:05:00,71.6,66.5,30.18,SSW,204,0.0,0.0,84,0.00,,---,0.00,VWS V14.01,2013-01-04 04:05:00,
2013-01-03 23:06:00,71.6,66.5,30.18,SSW,204,0.0,0.0,84,0.00,,---,0.00,VWS V14.01,2013-01-04 04:06:00,
2013-01-03 23:10:00,71.6,66.5,30.18,SSW,204,0.0,0.0,84,0.00,,---,0.00,VWS V14.01,2013-01-04 04:10:00,
2013-01-03 23:11:00,71.6,66.5,30.18,SSW,204,0.0,0.0,84,0.00,,---,0.00,VWS V14.01,2013-01-04 04:11:00,
2013-01-03 23:12:00,71.6,66.5,30.18,SSW,204,0.0,0.0,84,0.00,,---,0.00,VWS V14.01,2013-01-04 04:12:00,
2013-01-03 23:15:00,71.6,66.5,30.18,SSW,204,0.0,0.0,84,0.00,,---,0.00,VWS V14.01,2013-01-04 04:15:00,
2013-01-03 23:16:00,71.6,66.5,30.18,SSW,204,0.0,0.0,84,0.00,,---,0.00,VWS V14.01,2013-01-04 04:16:00,
2013-01-03 23:17:00,71.6,66.5,30.18,SSW,204,0.0,0.0,84,0.00,,---,0.00,VWS V14.01,2013-01-04 04:17:00,
2013-01-03 23:20:00,71.2,66.5,30.18,SSW,204,0.0,0.0,85,0.00,,---,0.00,VWS V14.01,2013-01-04 04:20:00,
2013-01-03 23:21:00,71.2,66.5,30.18,SSW,204,0.0,0.0,85,0.00,,---,0.00,VWS V14.01,2013-01-04 04:21:00,
2013-01-03 23:22:00,71.2,66.5,30.18,SSW,204,0.0,0.0,85,0.00,,---,0.00,VWS V14.01,2013-01-04 04:22:00,
2013-01-03 23:25:00,71.2,66.5,30.18,SSW,204,0.0,0.0,85,0.00,,---,0.00,VWS V14.01,2013-01-04 04:25:00,
2013-01-03 23:26:00,71.2,66.5,30.18,SSW,204,0.0,0.0,85,0.00,,---,0.00,VWS V14.01,2013-01-04 04:26:00,
2013-01-03 23:27:00,71.2,66.5,30.18,SSW,204,0.0,0.0,85,0.00,,---,0.00,VWS V14.01,2013-01-04 04:27:00,
2013-01-03 23:30:00,71.2,66.5,30.18,SSW,204,0.0,0.0,85,0.00,,---,0.00,VWS V14.01,2013-01-04 04:30:00,
2013-01-03 23:31:00,71.2,66.5,30.18,SSW,204,0.0,0.0,85,0.00,,---,0.00,VWS V14.01,2013-01-04 04:31:00,
2013-01-03 23:32:00,71.2,66.5,30.18,SSW,204,0.0,0.0,85,0.00,,---,0.00,VWS V14.01,2013-01-04 04:32:00,
2013-01-03 23:35:00,71.2,66.5,30.18,SSW,204,0.0,0.0,85,0.00,,---,0.00,VWS V14.01,2013-01-04 04:35:00,
2013-01-03 23:36:00,71.2,66.5,30.18,SSW,204,0.0,0.0,85,0.00,,---,0.00,VWS V14.01,2013-01-04 04:36:00,
2013-01-03 23:37:00,71.2,66.5,30.18,SSW,204,0.0,0.0,85,0.00,,---,0.00,VWS V14.01,2013-01-04 04:37:00,
2013-01-03 23:40:00,70.7,66.0,30.18,SSW,204,0.0,0.0,85,0.00,,---,0.00,VWS V14.01,2013-01-04 04:40:00,
2013-01-03 23:41:00,70.7,66.0,30.18,SSW,204,0.0,0.0,85,0.00,,---,0.00,VWS V14.01,2013-01-04 04:41:00,
2013-01-03 23:42:00,70.7,66.0,30.18,SSW,204,0.0,0.0,85,0.00,,---,0.00,VWS V14.01,2013-01-04 04:42:00,
2013-01-03 23:45:00,70.5,66.1,30.18,SSW,204,0.0,0.0,86,0.00,,---,0.00,VWS V14.01,2013-01-04 04:45:00,
2013-01-03 23:46:00,70.5,66.1,30.18,SSW,204,0.0,0.0,86,0.00,,---,0.00,VWS V14.01,2013-01-04 04:46:00,
2013-01-03 23:47:00,70.5,66.1,30.18,SSW,204,0.0,0.0,86,0.00,,---,0.00,VWS V14.01,2013-01-04 04:47:00,
2013-01-03 23:50:00,70.5,66.1,30.18,SSW,204,0.0,0.0,86,0.00,,---,0.00,VWS V14.01,2013-01-04 04:50:00,
2013-01-03 23:51:00,70.5,66.1,30.18,SSW,204,0.0,0.0,86,0.00,,---,0.00,VWS V14.01,2013-01-04 04:51:00,
2013-01-03 23:53:00,70.5,66.1,30.18,SSW,204,0.0,0.0,86,0.00,,---,0.00,VWS V14.01,2013-01-04 04:53:00,
2013-01-03 23:55:00,70.5,66.1,30.18,SSW,204,0.0,0.0,86,0.00,,---,0.00,VWS V14.01,2013-01-04 04:55:00,
2013-01-03 23:56:00,70.5,66.1,30.18,SSW,204,0.0,0.0,86,0.00,,---,0.00,VWS V14.01,2013-01-04 04:56:00,
2013-01-03 23:57:00,70.5,66.1,30.18,SSW,204,0.0,0.0,86,0.00,,---,0.00,VWS V14.01,2013-01-04 04:57:00,
2013-01-03 23:58:00,70.5,66.1,30.18,SSW,204,0.0,0.0,86,0.00,,---,0.00,VWS V14.01,2013-01-04 04:58:00,